EHI
0 0 0 0 0 0 0 0 0 0 0 1 2 4 8 15 23 32 38 39 35 29 25 24 23 22 21 22 24 23 20 14 11 11 9 5 1 1 1 1 0 0 0 0
0 0 0 0 0 0 0 0 0 0 0 1 4 5 6 11 16 25 35 38 35 30 25 20 17 15 16 18 21 21 19 13 10 8 6 3 0 0 0 0 0 0 0 0
0 0 0 0 0 0 0 0 0 0 0 1 3 4 4 5 8 16 27 34 33 29 23 16 11 9 11 15 18 20 16 11 8 6 3 1 0 0 0 0 0 0 0 0
0 0 0 0 0 0 0 0 0 0 0 0 1 1 2 2 4 10 19 26 28 26 20 15 10 9 9 12 17 17 13 8 5 4 2 0 0 0 0 0 0 0 0 0
0 0 0 0 0 0 0 0 0 0 0 0 0 0 0 0 2 6 13 19 23 22 19 15 11 8 7 9 13 13 10 6 3 2 0 0 0 0 0 0 0 0 0 0
0 0 0 0 0 0 0 0 0 0 0 0 0 0 0 0 0 3 8 15 20 19 16 13 10 7 6 7 9 9 7 5 3 1 0 0 0 0 0 0 0 0 0 0
0 0 0 0 0 0 0 0 0 0 0 0 0 0 0 0 0 1 5 12 16 16 14 11 10 8 6 6 7 8 7 5 3 2 0 0 0 0 0 0 0 0 0 0
0 0 0 0 0 0 0 0 0 0 0 0 0 0 0 0 0 1 4 8 11 13 13 11 10 9 9 8 9 10 9 6 3 1 0 0 0 0 0 0 0 0 0 0
0 0 0 0 0 0 0 0 0 0 0 0 0 0 0 0 1 2 3 4 6 10 12 12 10 11 11 11 12 14 12 9 6 2 0 0 1 1 0 0 0 0 0 0
0 0 0 0 0 0 0 0 0 0 0 0 0 0 0 0 1 2 2 2 3 7 11 12 12 12 12 13 15 17 16 13 8 4 2 1 2 2 1 0 0 0 0 0
0 0 0 0 0 0 0 0 0 0 0 0 0 0 0 0 0 1 2 2 3 6 9 11 11 11 12 13 17 21 20 16 11 7 5 3 3 2 1 0 0 0 0 0
0 0 0 0 0 0 0 0 0 0 0 0 0 0 0 0 0 0 2 3 3 5 8 10 10 10 11 14 20 24 22 18 14 10 6 4 2 1 0 1 1 0 0 0
0 0 0 0 0 0 0 0 0 0 0 0 0 0 0 0 0 0 1 3 4 6 8 10 10 10 11 15 20 23 23 21 18 13 8 4 1 0 0 1 2 1 0 0
0 0 0 0 0 0 0 0 0 0 0 0 0 0 1 1 2 1 1 3 7 8 9 10 11 12 13 15 19 21 22 23 20 16 10 5 2 1 1 2 3 2 2 2
0 0 0 0 0 0 0 0 0 0 0 0 1 1 2 3 3 3 2 5 9 10 9 9 9 10 11 14 16 16 16 18 18 15 8 4 2 2 2 3 4 4 5 5
0 0 0 0 0 0 0 0 0 1 1 1 2 3 3 4 5 6 9 12 13 11 9 9 8 8 9 10 11 10 9 11 13 12 7 4 2 2 3 4 5 5 5 6
0 0 0 0 0 0 0 0 1 3 3 4 6 7 8 8 8 10 16 21 17 11 8 8 7 6 7 7 7 6 6 6 8 9 7 5 4 2 3 4 5 5 5 5
0 0 0 0 0 0 0 1 3 6 7 8 11 16 17 17 15 15 18 20 16 8 4 4 3 4 5 6 6 5 5 4 4 5 6 5 5 4 4 4 4 5 4 4
0 0 0 0 0 0 0 1 3 9 12 13 16 21 24 24 20 16 14 13 9 4 1 0 1 1 2 4 4 4 3 2 1 2 3 3 4 4 4 3 3 3 2 3
0 0 0 0 0 0 0 0 2 8 13 14 16 19 20 19 15 9 7 7 4 1 0 0 0 0 1 2 2 1 1 1 0 1 1 1 2 2 2 2 1 1 0 1
0 0 0 0 0 0 0 0 1 4 8 11 13 13 12 9 7 4 3 3 2 0 0 0 0 0 0 0 0 0 0 0 0 0 0 0 0 0 0 0 0 0 0 0
0 0 0 0 0 0 0 1 1 1 4 7 9 8 6 6 5 5 4 2 0 0 0 0 0 0 0 0 0 0 0 0 0 0 0 0 0 0 0 0 0 0 0 0
0 0 0 0 0 0 0 1 1 2 3 5 5 4 4 4 5 4 3 1 0 0 0 0 0 0 0 0 0 0 0 0 0 0 0 0 0 0 0 0 0 0 0 0
0 0 0 0 0 0 0 1 2 2 3 4 3 2 2 2 3 2 1 0 0 0 0 0 0 0 0 0 0 0 0 0 0 0 0 0 0 0 0 0 0 0 0 0
0 0 0 0 0 0 0 1 1 1 2 2 1 1 1 1 1 1 0 0 0 0 0 0 0 0 0 0 0 0 0 0 0 0 0 0 0 0 0 0 0 0 0 0
0 0 0 0 0 0 0 0 1 1 1 1 0 0 0 1 0 0 0 0 0 0 0 0 0 0 0 0 0 0 0 0 0 0 0 0 0 0 0 0 0 0 0 0
Wind_Speed
3 1 7 10 9 11 11 10 8 7 2 2 2 2 3 5 6 8 9 9 9 8 6 6 7 9 9 8 10 10 9 8 7 6 6 6 5 4 3 3 4 4 4 4
4 8 14 12 13 13 11 9 7 5 3 4 3 2 3 5 6 8 10 11 10 8 7 7 7 7 9 10 10 11 10 9 7 6 5 4 5 3 3 3 3 4 4 4
10 13 10 11 14 12 11 6 4 2 4 7 4 3 2 1 1 4 7 9 10 12 11 10 10 8 9 10 11 10 10 9 7 7 5 5 4 3 2 2 2 3 4 5
9 13 13 13 14 10 9 7 2 0 3 3 3 1 5 3 1 2 5 7 9 10 10 9 10 10 10 10 9 9 9 8 7 7 7 8 6 5 4 4 3 3 4 5
8 7 8 11 13 9 8 4 2 3 4 3 3 2 7 2 2 4 5 8 10 10 11 10 10 11 9 9 9 9 9 8 7 7 8 8 5 4 3 3 4 3 3 4
12 11 8 10 12 8 4 4 6 6 6 3 2 2 6 4 5 4 6 9 10 11 11 9 8 8 7 7 8 9 9 8 8 8 8 8 8 6 6 5 5 3 2 2
10 13 11 8 9 10 3 4 5 6 5 3 2 2 8 8 6 6 7 10 11 11 11 10 9 9 8 9 9 9 10 9 9 9 8 8 8 8 8 7 6 5 3 3
7 10 8 6 8 7 4 7 6 4 4 3 1 4 8 7 5 3 5 8 10 10 10 11 11 10 10 10 10 10 11 10 9 9 7 7 7 5 5 6 5 6 5 5
9 10 7 7 6 5 3 4 7 7 2 1 2 4 7 4 1 1 3 6 9 11 12 12 11 10 10 10 10 11 11 10 9 9 7 7 7 6 6 6 5 4 4 5
11 7 8 6 2 3 6 5 5 5 4 2 2 4 5 5 4 4 5 6 8 9 11 11 11 11 10 10 10 10 11 11 10 10 8 8 7 7 6 5 6 5 5 5
7 8 7 2 4 6 1 2 4 4 6 7 4 7 7 9 8 7 7 7 7 9 11 11 10 10 10 9 10 10 10 9 9 9 8 7 6 6 5 5 6 5 5 6
3 6 5 7 6 4 5 6 7 5 3 5 5 7 4 7 7 6 7 7 7 7 8 10 10 9 9 10 10 10 10 10 9 9 7 7 6 6 6 6 6 5 6 6
2 4 1 5 5 2 2 4 5 7 5 4 5 6 3 4 4 5 6 6 6 7 6 7 8 8 9 9 9 10 10 10 9 8 8 7 6 6 6 6 6 6 6 6
2 2 6 9 9 6 4 5 6 7 5 5 7 6 5 6 6 5 5 6 7 7 8 8 8 8 8 8 8 9 9 9 8 8 7 7 7 6 6 6 5 6 6 6
5 1 3 5 6 5 6 8 8 7 9 8 7 9 11 11 10 8 6 7 8 7 7 7 7 6 7 7 7 7 6 6 7 7 7 6 6 5 5 4 4 4 4 5
3 2 4 5 3 2 3 6 7 6 6 6 6 5 5 5 5 6 6 8 9 7 6 6 6 6 6 6 6 6 5 5 6 6 5 4 4 3 2 2 2 2 2 2
0 1 2 4 4 2 4 5 5 4 4 8 8 8 7 6 7 8 9 9 9 8 7 6 6 5 5 5 6 6 6 6 7 6 5 4 4 4 3 2 2 1 0 0
4 3 3 2 2 5 7 2 1 2 0 3 7 8 11 10 8 7 7 10 10 9 8 7 6 7 6 7 7 8 9 9 9 8 6 5 5 4 3 4 2 1 1 1
5 6 4 3 3 5 4 2 2 2 1 2 12 14 14 14 13 9 6 9 10 10 9 8 7 8 9 9 9 11 11 10 10 9 7 5 5 5 5 4 3 2 2 2
3 3 5 4 3 6 4 4 2 5 1 1 11 16 13 8 6 5 6 11 12 11 10 9 9 11 11 9 10 13 11 10 9 7 6 6 6 6 5 4 4 3 3 3
2 2 3 4 4 5 3 5 2 4 6 5 8 12 10 4 6 11 12 13 13 12 11 11 12 11 9 8 11 12 11 9 6 6 6 6 6 5 5 4 4 4 4 5
3 2 3 3 4 6 2 2 2 4 1 4 7 9 10 12 15 14 14 14 13 13 11 11 11 10 8 8 11 12 9 6 6 6 7 6 5 5 5 5 5 4 5 5
2 4 3 4 5 3 2 2 2 2 3 4 6 10 16 17 16 14 13 12 12 12 10 9 11 10 8 7 8 10 6 5 6 7 6 5 5 4 4 4 4 3 3 3
3 1 1 1 3 2 1 0 1 2 3 5 10 15 16 16 16 15 13 12 11 10 9 8 10 10 7 6 7 7 6 6 7 6 5 4 4 4 4 3 3 2 2 2
4 1 1 1 2 1 2 2 5 7 8 10 11 13 14 17 15 14 12 11 10 9 7 7 8 8 7 6 6 6 6 6 7 6 5 4 4 4 3 3 2 2 1 2
3 3 3 3 2 2 2 4 9 11 11 13 15 13 12 14 15 13 11 9 9 9 8 8 8 8 7 7 6 5 5 6 6 5 4 3 3 3 3 3 4 6 5 6
Wind_Direction
254 196 248 249 234 236 262 279 286 285 262 111 109 128 173 163 154 159 159 157 162 165 163 157 155 162 158 162 159 154 158 154 147 141 140 139 138 138 133 144 136 127 119 110
305 262 252 261 269 269 272 284 287 306 21 79 89 100 194 177 179 177 165 162 157 153 157 161 159 168 166 168 167 162 161 160 158 151 146 142 136 143 143 139 132 133 125 120
231 252 268 275 279 277 279 265 253 251 71 49 71 17 289 277 181 159 161 165 162 166 170 171 170 178 173 174 173 166 165 161 156 147 129 120 103 95 99 124 138 148 136 124
244 255 265 273 277 275 278 271 244 78 71 12 55 305 287 290 317 186 167 168 173 170 170 174 174 178 178 177 172 164 164 161 157 151 147 148 148 156 175 169 163 156 146 137
245 255 267 272 274 283 274 287 35 72 100 70 18 98 293 328 279 245 198 181 176 174 173 177 179 179 177 173 170 167 164 163 161 160 159 155 154 160 154 151 153 156 154 155
245 258 255 262 281 286 290 19 40 49 66 37 290 147 275 250 232 238 206 188 180 176 175 176 179 171 171 173 171 167 166 170 170 165 164 163 163 158 154 161 165 167 165 170
265 269 264 263 280 299 335 68 18 353 10 264 245 191 252 254 259 240 212 195 183 176 173 172 175 176 177 178 176 171 172 176 174 169 170 171 169 166 168 170 173 170 173 187
227 269 254 238 222 230 252 144 165 211 226 254 271 243 261 276 278 243 195 181 171 172 174 178 182 181 182 179 175 174 177 177 174 173 176 174 168 168 174 175 174 180 187 195
200 242 248 235 237 189 218 226 179 147 159 124 261 286 302 307 320 138 157 164 173 177 179 182 182 181 181 180 178 178 176 174 176 175 176 180 176 174 181 183 181 186 193 195
181 228 263 250 282 294 167 169 104 120 153 189 240 245 239 244 228 204 186 188 185 180 181 182 184 184 183 180 178 176 174 177 177 178 184 188 185 184 184 180 189 193 195 193
185 196 265 297 208 227 179 127 125 136 154 152 198 250 224 208 202 198 199 193 182 179 181 183 184 183 179 176 176 174 175 175 178 183 187 187 185 187 187 190 200 198 195 190
217 167 237 253 250 209 173 171 148 153 204 162 166 249 249 189 184 189 194 180 174 174 175 178 177 175 176 179 180 180 179 183 185 184 183 187 188 189 196 206 208 201 198 196
349 121 179 322 326 349 128 159 150 134 128 157 163 243 237 177 175 189 186 171 163 165 163 162 165 170 177 181 182 183 185 188 185 179 181 186 189 192 202 210 211 205 200 200
46 140 181 210 222 205 205 198 163 132 151 194 202 200 202 189 187 191 184 168 152 157 162 161 165 170 171 175 177 180 183 183 178 174 177 186 196 200 205 205 207 208 202 201
44 28 268 250 226 201 206 203 188 175 177 181 206 188 201 191 188 184 171 154 139 144 150 157 160 161 159 161 165 169 173 173 170 164 174 192 200 204 208 208 213 214 212 213
37 14 343 311 274 251 240 217 198 195 184 187 172 207 205 162 146 147 144 138 131 132 139 139 139 144 150 154 156 155 156 160 149 153 167 174 172 175 175 177 176 174 204 220
220 96 14 291 297 355 263 235 208 197 189 168 182 197 147 133 142 149 140 128 126 125 118 114 117 128 136 136 132 131 131 116 107 108 107 115 124 119 119 111 92 99 203 173
167 149 165 245 357 235 242 281 115 127 96 160 141 141 132 122 103 85 108 119 116 112 103 94 95 98 98 100 98 97 94 94 94 92 90 94 105 109 95 82 73 40 36 83
172 157 153 162 215 264 289 333 64 106 23 125 129 124 116 113 89 66 78 105 108 105 100 92 89 90 89 89 94 92 86 85 84 81 78 76 86 88 79 74 60 43 45 34
51 122 145 159 186 225 249 308 312 97 93 229 135 136 136 123 119 145 121 107 101 96 94 91 85 83 81 80 88 87 83 80 78 77 73 69 70 77 76 73 67 48 52 43
6 24 157 176 209 244 278 313 348 149 204 198 153 144 142 148 147 137 123 108 104 100 96 93 89 83 79 82 88 86 84 82 85 84 78 69 69 75 76 65 60 61 61 57
191 187 195 166 198 236 296 17 165 199 182 157 148 137 122 114 115 119 117 113 110 105 99 97 94 87 78 79 87 86 82 81 79 76 70 63 58 63 71 68 59 54 58 60
215 203 193 192 207 247 257 205 216 173 131 136 139 128 126 126 127 123 118 115 111 108 103 98 98 93 81 77 88 92 86 80 74 70 65 57 51 51 58 68 65 55 55 65
264 223 184 228 256 264 305 47 103 121 122 133 130 128 131 129 127 124 121 117 113 111 108 107 103 99 91 82 83 90 88 81 75 67 57 50 49 44 44 53 67 75 70 73
253 219 172 229 266 339 33 111 114 99 100 105 116 123 129 127 126 125 123 121 120 117 111 109 108 107 105 95 85 82 82 81 73 62 53 47 48 50 46 42 51 76 85 132
237 196 171 210 225 134 117 116 118 116 118 122 119 112 116 123 126 123 120 119 120 118 116 111 108 107 104 98 91 81 79 80 76 60 45 41 39 39 42 46 39 42 61 65